Overview Statistics Trail Chart Weather Telemetry Raw packets
 

This is the latest recevied weather packets stored in our database for station/object KA1JKB. If no packets are shown the sender has not sent any weather packets the latest 10 day(s).

<< 58 59 60 61 62 63 64 >>
Time Temp. Humidity Pressure Rain* Wind** Luminosity Snow
1788023978 26.67° C 62% 1019.7 hPa 0 mm - 579 W/m² -
1788023673 26.11° C 61% 1019.8 hPa 0 mm - 672 W/m² -
1788023370 27.22° C 58% 1019.8 hPa 0 mm - 568 W/m² -
1788023069 26.67° C 59% 1020 hPa 0 mm - 729 W/m² -
1788022767 26.11° C 59% 1020.2 hPa 0 mm - 570 W/m² -
1788022466 26.67° C 59% 1019.9 hPa 0 mm - 558 W/m² -
1788022161 25.56° C 59% 1020 hPa 0 mm - 694 W/m² -
1788021860 26.11° C 56% 1019.9 hPa 0 mm - 626 W/m² -
1788021560 26.67° C 59% 1019.9 hPa 0 mm - 744 W/m² -
1788021258 26.11° C 60% 1020.2 hPa 0 mm - 738 W/m² -
1788020953 26.11° C 60% 1020.1 hPa 0 mm - 734 W/m² -
1788020654 26.11° C 61% 1020.1 hPa 0 mm - 698 W/m² -
1788020349 25.56° C 60% 1020.5 hPa 0 mm - 675 W/m² -
1788020046 25.56° C 61% 1020.2 hPa 0 mm - 681 W/m² -
1788019745 25.56° C 60% 1020.3 hPa 0 mm - 672 W/m² -
1788019445 25.56° C 57% 1020.3 hPa 0 mm - 617 W/m² -
1788019142 25.56° C 59% 1020.1 hPa 0 mm - 587 W/m² -
1788018837 25° C 58% 1020.2 hPa 0 mm - 653 W/m² -
1788018533 25° C 58% 1020.1 hPa 0 mm - 594 W/m² -
1788018237 25° C 59% 1020.4 hPa 0 mm - 751 W/m² -
1788017928 24.44° C 58% 1020.3 hPa 0 mm - 779 W/m² -
1788017624 25° C 60% 1020.4 hPa 0 mm - 759 W/m² -
1788017320 25° C 59% 1020.5 hPa 0 mm - 759 W/m² -
1788017016 25° C 62% 1020.5 hPa 0 mm - 720 W/m² -
1788016715 25° C 60% 1020.6 hPa 0 mm - 713 W/m² -

* Rain latest hour (hover to see other rain measurements)
** Current wind speed in m/s (hover to see current wind gust speed)